Location: Aldenham
(51.6667°N, 0.3500°W)
Time: 08:50:19
(UTC+00:00)

Explorer 7 - Pass Details

Date: 22 February 2026
Orbit: 430 x 541 km, 50.2° (Epoch: 12 March)

Event Time Altitude Azimuth Distance (km) Brightness Sun altitude
Rises 18:01:31 0° 280° (W) 2,484 11.8 -5.8°
Reaches altitude 10° 18:03:42 10° 272° (W) 1,626 10.9 -6.1°
Maximum altitude 18:07:09 39° 203° (SSW) 730 7.8 -6.6°
Drops below altitude 10° 18:10:44 10° 133° (SE) 1,686 8.9 -7.2°
Enters shadow 18:12:34 - 127° (SE) 2,402 9.7 -7.5°
Sets 18:13:02 0° 126° (SE) 2,589 - -7.5°
